{"data":{"norad_id":64137,"epoch":"2026-07-16T22:54:56.664000Z","epoch_age_seconds":5803473,"freshness":"OLD","line1":"1 64137U 25111Q   26197.95482250  .07430524  89776-5  40266-2 0  9998","line2":"2 64137  42.9721  12.2872 0021998 305.8552  54.0289 16.18134351 65863","mean_motion":16.18134351,"eccentricity":0.0021998,"inclination_deg":42.9721,"raan_deg":12.2872,"arg_perigee_deg":305.8552,"mean_anomaly_deg":54.0289,"bstar":0.0040266,"rev_number":6586,"period_min":88.991374486926,"perigee_km":210.0974092645,"apogee_km":239.14690845983,"semimajor_km":6602.7591588622,"source":"CELESTRAK","updated_at":"2026-07-18T09:01:01.813054Z"}}